Regional Weather Roundup
Issued by NWS

Home | Current Version | Previous Version | Text Only | Print | Product List | Glossary On
Versions: 1 2 3 4 5 6 7 8 9 10 11 12 13 14 15 16 17 18 19 20 21 22 23 24 25 26 27
000
ASUS43 KDMX 150307
RWRIA

WEATHER ROUNDUP FOR IOWA
NATIONAL WEATHER SERVICE DES MOINES IA
1000 PM CDT MON APR 14 2014

NOTE: "FAIR" INDICATES FEW OR NO CLOUDS BELOW 12,000 FEET WITH NO
SIGNIFICANT WEATHER AND/OR OBSTRUCTIONS TO VISIBILITY.

* - THESE STATIONS ARE NOT NWS STATIONS...THUS NOT UNDER NWS
QUALITY CONTROL.  THEY ALSO DO NOT REPORT WEATHER SUCH
AS PRECIPITATION OR FOG.

IAZ001>003-012>014-020>022-031>034-043>046-150400-
   NORTHWEST IOWA

CITY           SKY/WX    TMP DP  RH WIND       PRES   REMARKS
CARROLL *        N/A     30  23  74 N6        30.15R WCI  24
CHEROKEE *     CLEAR     28  18  64 N5        30.15S WCI  23
DENISON *      PTCLDY    30  18  59 CALM      30.15R
LE MARS *      CLEAR     28  18  64 N5        30.17R WCI  23
ORANGE CITY *  CLEAR     28  12  50 N6        30.16R WCI  22
SHELDON *      MOCLDY    27  14  59 N9        30.15R WCI  17
SIOUX CITY     CLEAR     31  18  58 N9        30.18R WCI  23
SPENCER        CLEAR     26  17  68 N6        30.14R WCI  19
STORM LAKE *   CLEAR     28  18  64 N8        30.14S WCI  20
$$

IAZ055>058-069>071-079>083-090>094-150400-
   SOUTHWEST IOWA

CITY           SKY/WX    TMP DP  RH WIND       PRES   REMARKS
ATLANTIC *     CLOUDY    32  23  69 N6        30.16R WCI  26
AUDUBON *      CLOUDY    30  18  59 CALM      30.15R
CLARINDA *     CLOUDY    32  27  80 CALM      30.18R
COUNCIL BLFS * CLOUDY    34  21  60 NW5       30.15R WCI  30
CRESTON *      MOCLDY    30  21  69 N7        30.14R WCI  23
HARLAN  *      CLOUDY    32  23  69 N5        30.19R WCI  27
LAMONI         CLEAR     30  22  72 NW6       30.13R WCI  24
RED OAK *      PTCLDY    34  23  64 N6        30.17R WCI  29
SHENANDOAH *   CLOUDY    34  27  75 NW3       30.18R
$$

IAZ047>049-059>061-072>074-084-150400-
   CENTRAL IOWA

CITY           SKY/WX    TMP DP  RH WIND       PRES   REMARKS
AMES           CLEAR     30  17  58 N12       30.14R WCI  20
ANKENY *       CLEAR     32  18  55 N12       30.14R WCI  23
CHARITON *     PTCLDY    32  23  69 NW7       30.14R WCI  26
DES MOINES     CLEAR     35  15  44 N14       30.14R WCI  26
GRINNELL*      CLEAR     30  23  74 NW9       30.12R WCI  22
KNOXVILLE *    CLEAR     32  21  64 NW7       30.13R WCI  26
MARSHALLTOWN   CLEAR     31  19  61 NW14      30.11R WCI  21
NEWTON *       CLEAR     32  19  59 N14       30.13S WCI  22
PELLA *        CLEAR     32  23  69 NW9       30.14R WCI  24
PERRY *          N/A     32  19  59 N10       30.15R WCI  24
$$

IAZ004>006-015-016-023>025-035-036-150400-
   NORTH CENTRAL IOWA

CITY           SKY/WX    TMP DP  RH WIND       PRES   REMARKS
ALGONA *       CLEAR     28  18  64 N7        30.13S WCI  21
CLARION *      CLEAR     28  19  69 N6        30.12S WCI  22
ESTHERVILLE    CLEAR     25  18  74 NW7       30.13R WCI  17
FORT DODGE *   CLEAR     30  18  59 N5        30.14S WCI  25
MASON CITY     CLEAR     27  15  61 NW10      30.12R WCI  17
FOREST CITY *  CLEAR     30  18  59 NW8       30.11R WCI  23
IOWA FALLS *     N/A     30  19  64 NW12      30.12S WCI  21
$$

IAZ007>011-017>019-026>030-037>042-050>054-066-150400-
   NORTHEAST IOWA

CITY           SKY/WX    TMP DP  RH WIND       PRES   REMARKS
CEDAR RAPIDS   CLEAR     31  19  61 NW10      30.07R WCI  22
CHARLES CITY * CLEAR     30  16  55 NW14      30.10R WCI  20
CLINTON *      PTCLDY    28  25  86 NW6       30.07S WCI  22
DECORAH *      CLOUDY    30  16  55 NW9       30.05R WCI  22
DUBUQUE        PTCLDY    30  19  63 NW14      30.03R WCI  19
MONTICELLO *   PTCLDY    30  19  64 NW8       30.06R WCI  23
OELWEIN *      PTCLDY   N/A N/A N/A NW15      30.08R
WATERLOO       CLEAR     29  17  61 NW14      30.09R WCI  18
$$

IAZ064-065-067-068-078-150400-
   EAST CENTRAL IOWA

CITY           SKY/WX    TMP DP  RH WIND       PRES   REMARKS
DAVENPORT      PTCLDY    32  24  72 NW8       30.05R WCI  25
IOWA CITY      CLEAR     33  20  58 NW8       30.10R WCI  26
MT. PLEASANT * CLEAR     32  21  64 NW6       30.10R WCI  26
MUSCATINE *    MOCLDY    34  21  60 NW8       30.09R WCI  27
QUAD CITIES    CLEAR     33  24  69 NW8       30.05R WCI  26
$$

IAZ062-063-075>077-085>089-095>099-150400-
   SOUTHEAST IOWA

CITY           SKY/WX    TMP DP  RH WIND       PRES   REMARKS
BURLINGTON     CLEAR     33  21  61 NW9       30.07R WCI  25
FAIRFIELD *    CLEAR     32  21  64 NW14      30.11R WCI  22
FORT MADISON * CLEAR     32  25  74 NW8       30.10R WCI  25
KEOKUK *       CLEAR     32  21  64 NW8       30.09R WCI  25
OSKALOOSA *      N/A     32  24  72 NW12      30.12R WCI  23
CENTERVILLE *  CLEAR     32  23  69 NW9       30.14R WCI  24
OTTUMWA        CLEAR     31  22  69 NW12      30.11R WCI  22
WASHINGTON *   CLEAR     32  21  64 NW14      30.10R WCI  22
$$

ABBREVIATIONS USED IN REMARKS
   TC - TEMPERATURES IN CELSIUS
  WCI - WIND CHILL INDEX
   HX - HEAT INDEX
  VSB - VISIBILITY
$$




USA.gov is the U.S. government's official web portal to all federal, state and local government web resources and services.